Tracking 32964 objects as of 20-Jan-2026
HD Live streaming from Space Station
objects crossing your sky now

WESTFORD NEEDLES

Track WESTFORD NEEDLES now!
10-day predictions
WESTFORD NEEDLES is classified as:


NORAD ID: 19051
Int'l Code: 1963-014EA
Perigee: 3,470.8 km
Apogee: 3,808.4 km
Inclination: 87.4 °
Period: 166.1 minutes
Semi major axis: 10010 km
RCS: 0.357 m2 (medium)
Launch date: May 9, 1963
Source: United States (US)
Launch site: AIR FORCE WESTERN TEST RANGE (AFWTR)
Your satellite tracking list
Your tracking list is empty




NASA's NSSDC Master Catalog

Two Line Element Set (TLE):
1 19051U 63014EA  26017.80987699  .00000034  00000-0  14041-1 0  9990
2 19051  87.3817 166.5371 0168593  69.5241 292.3626  8.66785792430319
Source of the keplerian elements: AFSPC